Location: Palomar Mountain Lodge
(33.3110°N, 116.8495°W)
Time: 01:31:36
(UTC-08:00)

Cosmos 2082 Rocket - Pass Details

Date: 19 May 2017
Orbit: 832 x 855 km, 71.0° (Epoch: 24 November)

Event Time Altitude Azimuth Distance (km) Brightness Sun altitude
Exits shadow 23:56:56 39° 357° (N) 1,254 3.4 -35.5°
Drops below altitude 10° 00:00:32 10° 14° (NNE) 2,467 5.3 -35.7°
Sets 00:03:00 0° 17° (NNE) 3,402 6.1 -35.8°
